This demonstration page uses our WeatherBlox Daily Observations layout. Learn more.

Left ArrowRight Arrow

Hourly Observations for May 4, 2015

Temp ( °F °C ) Dew Point ( °F °C ) Humidity (%) Winds ( mph kmh ) Pressure ( in mb ) Visibility ( mi km ) Precip ( " mm )
12:53 am 00:53 Clear 55 12.8 50 10 83 83 Calm 30.08 1019 10 16 0.00 0.00
1:53 am 01:53 Clear 54 12.2 49 9.4 83 83 Calm 30.10 1019 10 16 0.00 0.00
2:53 am 02:53 Mostly Clear 53 11.7 50 10 89 89 Calm 30.10 1019 10 16 0.00 0.00
3:53 am 03:53 Mostly Clear 52 11.1 49 9.4 89 89 E 3 6 30.11 1020 10 16 0.00 0.00
4:53 am 04:53 Clear 56 13.3 49 9.4 77 77 E 3 6 30.11 1020 10 16 0.00 0.00
5:53 am 05:53 Mostly Cloudy 56 13.3 49 9.4 77 77 E 3 6 30.12 1020 10 16 0.00 0.00
6:53 am 06:53 Mostly Sunny 53 11.7 49 9.4 86 86 Calm 30.14 1021 10 16 0.00 0.00
7:53 am 07:53 Sunny 59 15 52 11.1 78 78 E 5 7 30.14 1021 10 16 0.00 0.00
8:53 am 08:53 Sunny 68 20 53 11.7 59 59 Calm 30.16 1021 10 16 0.00 0.00
9:53 am 09:53 Sunny 72 22.2 53 11.7 52 52 VRB 7 11 30.17 1022 10 16 0.00 0.00
10:53 am 10:53 Mostly Sunny 73 22.8 52 11.1 48 48 WSW 10 17 30.18 1022 10 16 0.00 0.00
11:53 am 11:53 Partly Cloudy 77 25 53 11.7 43 43 WSW 10 17 30.19 1022 10 16 0.00 0.00
12:53 pm 12:53 Mostly Cloudy 79 26.1 53 11.7 41 41 WSW 9 15 30.18 1022 10 16 0.00 0.00
1:53 pm 13:53 Partly Cloudy 80 26.7 55 12.8 42 42 WSW 12 19 30.18 1022 10 16 0.00 0.00
2:53 pm 14:53 Partly Cloudy 77 25 55 12.8 47 47 W 7 11 30.17 1022 10 16 0.00 0.00
3:53 pm 15:53 Partly Cloudy with Light Rain 78 25.6 56 13.3 47 47 SW 6 9 30.16 1021 10 16 0.00 0.03
4:53 pm 16:53 Cloudy 77 25 55 12.8 47 47 SW 6 9 30.16 1021 10 16 0.00 0.03
5:53 pm 17:53 Sunny 78 25.6 58 14.4 50 50 WSW 3 6 30.16 1021 10 16 0.00 0.00
6:53 pm 18:53 Mostly Cloudy 78 25.6 58 14.4 50 50 WSW 3 6 30.15 1021 10 16 0.00 0.00
7:53 pm 19:53 Cloudy 74 23.3 62 16.7 67 67 Calm 30.16 1021 10 16 0.00 0.00
8:53 pm 20:53 Mostly Cloudy 67 19.4 61 16.1 81 81 Calm 30.16 1021 10 16 0.00 0.00
9:53 pm 21:53 Mostly Clear 63 17.2 59 15 87 87 Calm 30.17 1022 10 16 0.00 0.00
10:53 pm 22:53 Mostly Cloudy 62 16.7 59 15 90 90 Calm 30.19 1022 10 16 0.00 0.00
11:53 pm 23:53 Cloudy 69 20.6 60 15.6 73 73 N 9 15 30.19 1023 10 16 0.00 0.00

Powered by AerisWeather